{"data":{"norad_id":62926,"epoch":"2026-05-24T22:49:09.488928Z","epoch_age_seconds":79464,"freshness":"FRESH","line1":"1 62926U 25027V   26144.95080427  .00020886  00000+0  76598-3 0  9994","line2":"2 62926  43.0059  58.3393 0001491 240.2243 119.8461 15.27596004 73202","mean_motion":15.27596004,"eccentricity":0.0001491,"inclination_deg":43.0059,"raan_deg":58.3393,"arg_perigee_deg":240.2243,"mean_anomaly_deg":119.8461,"bstar":0.00076598,"rev_number":7320,"period_min":94.265761119391,"perigee_km":481.97817902277,"apogee_km":484.02417042648,"semimajor_km":6861.1381747246,"source":"CELESTRAK","updated_at":"2026-05-25T13:38:19.823437Z"}}